Weather History for Black River Falls, WI

Change the Weather History Date:

Monday, May 5, 2014

  Actual Average (KLSE) Record (KLSE)
Temperature  
Mean Temperature 54 °F 56 °F  
Max Temperature 64 °F 67 °F 91 °F (1949)
Min Temperature 44 °F 45 °F 31 °F (1967)
Degree Days  
Heating Degree Days 12 9  
Month to date heating degree days 48  
Since 1 July heating degree days 7000  
Cooling Degree Days 0 1  
Month to date cooling degree days 3  
Year to date cooling degree days 10  
Growing Degree Days 4 (Base 50)    
Moisture  
Dew Point 30 °F    
Average Humidity 43    
Maximum Humidity 68    
Minimum Humidity 26    
Precipitation  
Precipitation 0.00 in 0.12 in 1.20 in (1950)
Month to date precipitation 0.58  
Year to date precipitation 8.13  
Snow  
Snow 0.00 in 0.10 in 0.00 in (2000)
Month to date snowfall 0.1  
Since 1 July snowfall 43.4  
Snow Depth -    
Sea Level Pressure  
Sea Level Pressure 30.00 in    
Wind  
Wind Speed 6 mph (ESE)    
Max Wind Speed 16 mph    
Max Gust Speed 23 mph    
Visibility 10 miles    
Events Rain    
T = Trace of Precipitation, MM = Missing Value Source: NWS Daily Summary

Daily Weather History Graph

Daily Weather History Graph

Search for Another Location

Airport:

Trip Planner

Search our weather history database for the weather conditions in past years. The results will help you decide how hot, cold, wet, or windy it might be!

Date:

Astronomy

May. 05, 2014 Rise Set
Actual Time 5:48 AM CDT 8:12 PM CDT
Civil Twilight 5:16 AM CDT 8:44 PM CDT
Nautical Twilight 4:36 AM CDT 9:24 PM CDT
Astronomical Twilight 3:51 AM CDT 10:10 PM CDT
Moon 11:09 AM CDT (5/5) 12:55 AM CDT (5/5)
Length of Visible Light 15h 28m
Length of Day
14h 23m
Waxing Crescent, 37% of the Moon is Illuminated
May 5
Waxing Crescent
May 6
First Quarter
May 14
Full
May 21
Last Quarter
May 28
New

Hourly Weather History & Observations

Time (CDT) Temp. Windchill Dew Point Humidity Pressure Visibility Wind Dir Wind Speed Gust Speed Precip Events Conditions
12:15 AM 45.3 °F - 31.3 °F 58% 29.98 in 10.0 mi Calm Calm - N/A   Overcast
12:35 AM 45.5 °F - 31.6 °F 58% 30.00 in 10.0 mi Calm Calm - N/A Rain Light Rain
12:55 AM 44.6 °F - 33.1 °F 64% 30.00 in 10.0 mi Calm Calm - N/A   Mostly Cloudy
1:15 AM 44.6 °F - 34.7 °F 68% 30.00 in 10.0 mi Calm Calm - N/A   Overcast
1:35 AM 46.9 °F - 32.4 °F 57% 29.99 in 10.0 mi SE 3.5 mph - N/A   Overcast
1:55 AM 50.0 °F - 27.5 °F 42% 29.99 in 10.0 mi ESE 4.6 mph - N/A   Overcast
2:15 AM 50.2 °F - 27.3 °F 41% 29.98 in 10.0 mi ESE 4.6 mph - N/A   Overcast
2:35 AM 49.3 °F - 28.6 °F 45% 29.98 in 10.0 mi East 5.8 mph - N/A   Overcast
2:55 AM 49.6 °F - 29.1 °F 45% 30.00 in 10.0 mi ESE 6.9 mph - N/A   Overcast
3:15 AM 49.3 °F - 30.0 °F 48% 30.01 in 10.0 mi ESE 5.8 mph - N/A   Overcast
3:55 AM 48.6 °F - 29.8 °F 48% 30.01 in 10.0 mi East 5.8 mph - N/A   Overcast
4:15 AM 48.2 °F - 30.0 °F 49% 30.03 in 10.0 mi East 4.6 mph - N/A   Overcast
4:35 AM 47.7 °F - 30.6 °F 52% 30.02 in 10.0 mi East 6.9 mph - N/A   Overcast
4:55 AM 47.5 °F - 31.1 °F 53% 30.04 in 10.0 mi East 5.8 mph - N/A   Overcast
5:15 AM 47.5 °F - 30.2 °F 51% 30.04 in 10.0 mi East 6.9 mph - N/A   Overcast
5:35 AM 47.3 °F - 29.8 °F 51% 30.04 in 10.0 mi East 8.1 mph - N/A   Overcast
5:55 AM 46.8 °F - 30.0 °F 52% 30.04 in 10.0 mi ESE 8.1 mph - N/A   Overcast
6:15 AM 46.0 °F 43.1 °F 30.7 °F 55% 30.03 in 10.0 mi ESE 5.8 mph - N/A   Overcast
6:35 AM 45.5 °F 41.8 °F 30.9 °F 57% 30.03 in 10.0 mi East 6.9 mph - N/A   Overcast
6:55 AM 45.5 °F 42.5 °F 31.1 °F 57% 30.03 in 10.0 mi ESE 5.8 mph - N/A   Overcast
7:15 AM 45.3 °F 43.0 °F 31.6 °F 59% 30.04 in 10.0 mi East 4.6 mph - N/A   Overcast
7:35 AM 45.7 °F 42.0 °F 32.0 °F 59% 30.05 in 10.0 mi East 6.9 mph - N/A   Overcast
7:55 AM 46.4 °F 41.9 °F 32.0 °F 57% 30.06 in 10.0 mi East 9.2 mph - N/A   Overcast
8:15 AM 47.5 °F - 32.5 °F 56% 30.06 in 10.0 mi East 10.4 mph - N/A   Overcast
8:35 AM 47.5 °F - 32.5 °F 56% 30.06 in 10.0 mi East 8.1 mph 16.1 mph N/A   Overcast
8:55 AM 47.8 °F - 32.0 °F 54% 30.05 in 10.0 mi East 11.5 mph - N/A   Overcast
9:15 AM 47.8 °F - 31.1 °F 52% 30.04 in 10.0 mi East 10.4 mph 17.3 mph N/A   Overcast
9:35 AM 48.6 °F - 30.2 °F 49% 30.04 in 10.0 mi East 16.1 mph - N/A   Overcast
9:55 AM 49.8 °F - 30.2 °F 47% 30.04 in 10.0 mi East 11.5 mph 17.3 mph N/A   Overcast
10:15 AM 51.4 °F - 29.7 °F 43% 30.04 in 10.0 mi East 13.8 mph 18.4 mph N/A   Overcast
10:35 AM 53.4 °F - 28.4 °F 38% 30.03 in 10.0 mi SE 11.5 mph 17.3 mph N/A   Overcast
10:55 AM 54.1 °F - 27.7 °F 36% 30.04 in 10.0 mi ESE 10.4 mph - N/A   Overcast
11:15 AM 55.4 °F - 27.9 °F 35% 30.03 in 10.0 mi SE 9.2 mph 18.4 mph N/A   Scattered Clouds
11:35 AM 56.3 °F - 27.9 °F 34% 30.04 in 10.0 mi SE 9.2 mph 17.3 mph N/A   Scattered Clouds
11:55 AM 57.4 °F - 27.3 °F 32% 30.04 in 10.0 mi East 10.4 mph 23.0 mph N/A   Mostly Cloudy
12:15 PM 59.0 °F - 28.0 °F 31% 30.04 in 10.0 mi SE 8.1 mph - N/A   Overcast
12:35 PM 57.7 °F - 28.0 °F 32% 30.03 in 10.0 mi ESE 9.2 mph 16.1 mph N/A   Overcast
1:15 PM 59.9 °F - 27.9 °F 30% 30.01 in 10.0 mi East 6.9 mph - N/A   Scattered Clouds
1:35 PM 60.1 °F - 28.2 °F 30% 30.00 in 10.0 mi East 12.7 mph 18.4 mph N/A   Clear
1:55 PM 60.3 °F - 28.2 °F 30% 29.99 in 10.0 mi East 10.4 mph - N/A   Clear
2:15 PM 61.3 °F - 28.4 °F 29% 29.98 in 10.0 mi East 10.4 mph 17.3 mph N/A   Clear
2:35 PM 61.3 °F - 27.3 °F 27% 29.97 in 10.0 mi East 8.1 mph - N/A   Clear
2:55 PM 61.7 °F - 28.9 °F 29% 29.97 in 10.0 mi SSE 6.9 mph - N/A   Clear
3:15 PM 61.7 °F - 28.4 °F 28% 29.96 in 10.0 mi East 6.9 mph - N/A   Clear
3:35 PM 63.0 °F - 29.7 °F 29% 29.95 in 10.0 mi ENE 10.4 mph - N/A   Clear
3:55 PM 63.1 °F - 29.5 °F 28% 29.94 in 10.0 mi SE 11.5 mph 17.3 mph N/A   Clear
4:15 PM 63.1 °F - 28.9 °F 28% 29.94 in 10.0 mi NE 4.6 mph - N/A   Clear
4:35 PM 63.3 °F - 27.5 °F 26% 29.95 in 10.0 mi East 5.8 mph - N/A   Clear
4:55 PM 63.1 °F - 28.0 °F 27% 29.95 in 10.0 mi East 8.1 mph - N/A   Clear
5:15 PM 63.9 °F - 28.6 °F 26% 29.95 in 10.0 mi East 5.8 mph - N/A   Clear
5:35 PM 63.5 °F - 29.5 °F 28% 29.96 in 10.0 mi East 6.9 mph - N/A   Clear
5:55 PM 62.6 °F - 30.0 °F 29% 29.96 in 10.0 mi East 9.2 mph - N/A   Clear
6:15 PM 62.6 °F - 30.0 °F 29% 29.95 in 10.0 mi ESE 6.9 mph - N/A   Clear
6:35 PM 61.9 °F - 30.2 °F 30% 29.95 in 10.0 mi ESE 8.1 mph - N/A   Clear
6:55 PM 61.0 °F - 29.8 °F 31% 29.96 in 10.0 mi SE 6.9 mph - N/A   Clear
7:15 PM 59.9 °F - 29.7 °F 32% 29.96 in 10.0 mi ESE 9.2 mph - N/A   Clear
7:35 PM 59.2 °F - 29.7 °F 33% 29.96 in 10.0 mi East 6.9 mph - N/A   Clear
7:55 PM 57.4 °F - 29.8 °F 35% 29.96 in 10.0 mi East 4.6 mph - N/A   Clear
8:15 PM 55.8 °F - 30.2 °F 38% 29.97 in 10.0 mi East 5.8 mph - N/A   Clear
8:35 PM 54.0 °F - 31.1 °F 42% 29.97 in 10.0 mi East 4.6 mph - N/A   Clear
8:55 PM 53.1 °F - 31.8 °F 44% 29.98 in 10.0 mi East 5.8 mph - N/A   Clear
9:15 PM 52.0 °F - 32.0 °F 47% 29.98 in 10.0 mi East 6.9 mph - N/A   Clear
9:35 PM 51.8 °F - 32.9 °F 49% 29.98 in 10.0 mi East 6.9 mph - N/A   Clear
9:55 PM 51.6 °F - 32.9 °F 49% 29.99 in 10.0 mi ESE 6.9 mph - N/A   Clear
10:15 PM 51.1 °F - 33.1 °F 50% 30.00 in 10.0 mi ESE 5.8 mph - N/A   Clear
10:35 PM 50.7 °F - 33.1 °F 51% 30.01 in 10.0 mi ESE 5.8 mph - N/A   Clear
10:55 PM 50.0 °F - 33.3 °F 53% 30.01 in 10.0 mi ESE 5.8 mph - N/A   Clear
11:15 PM 48.9 °F - 33.4 °F 55% 30.01 in 10.0 mi ESE 5.8 mph - N/A   Clear